Terminal Aerodrome Forecast
Issued by NWS Green Bay, WI

Home | Current Version | Previous Version | Graphics & Text | Print | Product List | Glossary On
Versions: 1 2 3 4 5 6 7 8 9 10 11 12 13 14 15 16 17 18 19 20 21 22 23 24 25 26 27 28 29 30 31 32 33 34 35 36 37 38 39 40 41 42 43 44 45 46 47 48 49 50
495
FTUS43 KGRB 220319 AAA
TAFGRB
TAF AMD
KGRB 220319Z 2203/2224 25009KT P6SM VCSH OVC024
     FM221300 25011G20KT P6SM FEW025 BKN040
     FM222300 26009KT P6SM SCT040 BKN070=

USA.gov is the U.S. government's official web portal to all federal, state and local government web resources and services.